This is the latest recevied weather packets stored in our database for station/object VK4TOM-13. If no packets are shown the sender has not sent any weather packets the latest 10 day(s).
| Time | Temp. | Humidity | Pressure | Rain* | Wind** | Luminosity | Snow |
|---|---|---|---|---|---|---|---|
| 1788608798 | 20.56° C | 70% | 1019.6 hPa | 0 mm | - | - | - |
| 1788608197 | 20.56° C | 70% | 1019.7 hPa | 0 mm | - | - | - |
| 1788607596 | 20.56° C | 70% | 1019.6 hPa | 0 mm | - | - | - |
| 1788606995 | 20.56° C | 70% | 1019.5 hPa | 0 mm | - | - | - |
| 1788606394 | 20.56° C | 70% | 1019.5 hPa | 0 mm | - | - | - |
| 1788605793 | 20° C | 70% | 1019.3 hPa | 0 mm | - | - | - |
| 1788605192 | 19.44° C | 70% | 1019.2 hPa | 0 mm | - | - | - |
| 1788604591 | 19.44° C | 70% | 1019 hPa | 0 mm | - | - | - |
| 1788603990 | 19.44° C | 70% | 1018.8 hPa | 0 mm | - | - | - |
| 1788603388 | 20° C | 70% | 1018.7 hPa | 0 mm | - | - | - |
| 1788602788 | 20.56° C | 70% | 1018.6 hPa | 0 mm | - | - | - |
| 1788602187 | 20.56° C | 70% | 1018.5 hPa | 0 mm | - | - | - |
| 1788601586 | 21.11° C | 70% | 1018.5 hPa | 0 mm | - | - | - |
| 1788600984 | 21.11° C | 70% | 1018.3 hPa | 0 mm | - | - | - |
| 1788600383 | 21.67° C | 70% | 1018.2 hPa | 0 mm | - | - | - |
| 1788599782 | 21.67° C | 70% | 1018.1 hPa | 0 mm | - | - | - |
| 1788599181 | 22.22° C | 70% | 1018 hPa | 0 mm | - | - | - |
| 1788598580 | 22.22° C | 70% | 1017.8 hPa | 0 mm | - | - | - |
| 1788597979 | 22.78° C | 70% | 1017.6 hPa | 0 mm | - | - | - |
| 1788597378 | 23.33° C | 70% | 1017.5 hPa | 0 mm | - | - | - |
| 1788596777 | 23.89° C | 70% | 1017.4 hPa | 0 mm | - | - | - |
| 1788595575 | 25.56° C | 70% | 1017 hPa | 0 mm | - | - | - |
| 1788594974 | 26.11° C | 68% | 1017 hPa | 0 mm | - | - | - |
| 1788594373 | 26.11° C | 67% | 1016.8 hPa | 0 mm | - | - | - |
| 1788593170 | 27.22° C | 70% | 1016.7 hPa | 0 mm | - | - | - |
* Rain since midnight (hover to see other rain measurements)
** Current wind speed in m/s (hover to see current wind gust speed)